Showing default

YAOGAN-36 04B, 54748

Orbit data source: Space-Track

YAOGAN-36 04B, 54748 is a payload satellite owned by PLA GAD (CN) in LEO that was launched on Wed, 14 Dec 2022 UTC via a CHANG ZHENG 2D launch vehicle from the Xichang Space Center, China (XSC). Payload-class satellites include a variety of spacecraft equipped with specific instruments for various scientific and technological missions. These include communications satellites like Starlink; space stations such as the ISS; scientific satellites like the Hubble; Earth observation satellites from companies like Planet Labs, Umbra, and HawkEye 360; GPS; miniature CubeSats for education and research; and military/defense satellites.

Loading next visibility...
Identifier
54748, 2022-171C
Orbit
LEO
Country
Flag of CNCN / PRC
Related business
Manufacturer
SAST
Mission
Operational Defense Sigint
Bus & Motor
Unknown
Mass
~300 kg wet, ~300 kg dry
Launch date (UTC)
2022-12-14 (3 years ago)
Launch vehicle
CHANG ZHENG 2D
Launch site
Xichang Space Center, China (XSC)
Object type
Payload
Rocket body
Debris
Shape & HBR
Box + 2 Pan, 2.5 m
Radar Cross Section
11.063 m², Large (>1 m²)

Expand to show TLE details & history
Last TLE update: 16 hours ago

TLE from 16 hours ago
0 YAOGAN-36 04B
1 54748U 22171C   25348.95773042  .00010247  00000-0  42937-3 0  9992
2 54748  35.0031 273.5048 0008318   5.5434 354.5371 15.22730197167281
Epoch: 2025-12-14T22:59Z
TLE epoch observation values (Epoch: 2025-12-14T22:59:07.908Z)
Latitude
-0.00005°
Longitude
-155.14141°
Altitude
490.825 km
Speed
7.625 km/s
True Right ascension
18h 14m 01s
True Declination
0° 00' 00"
Sunlit
Object was in daylight at epoch
Visualization orbit readout
Latitude
Unknown
Longitude
Unknown
Altitude
Unknown
Speed
Unknown
Apparent Right ascension
Unknown
Apparent Declination
Unknown
Sunlit
N/A
Visualization observer readout
Local Sidereal Time
13:25:44
Azimuth
Unknown
Elevation
Unknown
Doppler factor
Unknown
Orbital elements
Apogee altitude
506.581 km
Perigee altitude
495.137 km
Semi-major axis
6,878.996 km
Eccentricity
0.00083
Inclination
35.0031°
RAAN
273.5048°
Arg. of periapsis
5.5434°
True anomaly
354.52802°
Mean anomaly
354.5371°
Eccentric anomaly
354.53256°
Mean motion
3.80413 °/min
Orbital period
94.63 mins
BSTAR
0.00042937
Loading maneuver chart data...
Computing Atmospheric mass density...
Loading historical data...
Loading historical data...
Loading historical data...
Loading historical data...
Loading historical data...
Loading historical data...
Loading historical data...
Other satellites on launch #171 in the year 2022 (2022-12-14 UTC)

Documentation

Showing up to 5 results
|